Wind_Speed
39 37 36 36 33 31 34 35 24 31 38 27 20 15 9 14 15 16 17 19 21 21 21 20 21 22 22 22 27 28 28 27 26 26 23 21 19 19 17 21 17 19 15 15
46 40 28 33 39 37 28 26 32 28 25 17 9 8 12 17 23 23 26 26 24 24 23 23 23 23 22 21 21 24 26 28 29 28 25 22 20 18 17 16 18 21 15 17
20 26 31 30 3 14 25 24 18 17 16 5 8 22 27 29 29 32 30 29 33 30 26 26 25 25 23 23 23 21 22 25 26 26 24 22 21 17 18 17 15 15 14 10
25 23 3 8 21 31 15 14 14 23 6 7 21 32 29 32 33 38 39 38 34 34 33 29 29 28 26 24 23 24 22 22 23 23 22 21 20 19 18 17 15 14 12 13
9 10 24 32 15 11 25 32 26 4 5 26 30 35 42 40 39 39 39 38 36 37 33 32 30 30 29 27 25 23 24 23 20 21 20 20 19 19 18 17 15 15 14 12
15 9 6 1 15 25 32 29 8 14 32 42 48 55 49 46 47 43 39 41 44 41 38 35 32 33 31 28 27 24 25 26 23 20 20 21 19 19 18 18 16 15 13 11
39 19 23 29 30 28 11 12 17 43 53 50 50 44 50 55 50 46 46 45 44 48 47 40 37 35 32 28 27 24 26 24 24 24 20 20 21 19 19 18 17 15 12 10
23 14 14 7 6 17 24 37 53 53 50 55 54 54 55 56 54 53 50 45 42 45 46 43 38 39 31 28 21 27 26 25 22 24 23 21 20 21 19 18 16 15 14 12
33 41 37 26 55 44 45 48 52 52 44 44 49 52 54 52 48 45 43 43 40 40 45 43 40 38 41 28 26 26 29 26 25 23 23 23 22 20 21 20 19 17 16 15
39 44 52 41 49 48 42 42 38 35 40 48 49 48 48 47 47 46 45 45 44 42 42 44 40 40 42 38 31 32 29 30 28 28 25 24 25 23 21 22 22 21 20 19
53 49 49 54 33 34 45 45 48 39 38 40 44 47 47 45 44 43 44 44 44 44 44 42 40 42 39 37 40 40 36 34 33 31 31 27 25 25 24 22 23 23 23 22
61 48 43 42 40 48 43 37 37 39 42 41 41 43 43 43 41 41 42 44 45 45 45 39 38 41 38 37 40 39 38 35 33 33 31 31 28 26 26 25 23 23 24 24
50 41 39 49 51 38 38 43 42 41 40 40 37 37 40 43 44 42 46 48 49 45 39 37 34 35 32 33 38 35 40 32 34 34 33 31 30 28 26 26 26 24 23 23
45 49 52 42 40 46 41 36 33 34 33 33 37 38 40 46 47 48 47 47 47 46 42 38 37 35 30 32 34 38 35 36 33 34 35 34 32 30 29 27 27 26 24 22
35 35 39 44 47 32 28 30 32 30 31 33 35 36 41 45 44 41 42 45 46 45 44 41 39 36 36 31 31 35 40 39 36 36 35 35 34 32 31 30 27 25 24 23
40 43 42 37 31 29 33 23 26 25 25 21 26 24 33 38 38 38 43 42 42 39 36 36 37 37 36 36 35 33 33 39 42 39 36 36 35 34 32 30 28 25 23 23
29 27 25 23 27 27 19 18 21 29 30 30 37 34 37 38 41 35 35 33 33 32 30 29 30 31 34 35 32 34 33 34 43 37 35 34 34 33 30 28 26 25 24 23
20 27 26 24 29 31 18 25 27 27 32 34 33 37 39 42 40 43 38 33 30 27 29 28 27 27 29 31 31 31 33 32 41 37 33 31 33 31 29 27 26 25 23 22
34 36 33 32 29 26 29 30 30 27 29 34 34 37 38 39 43 39 39 32 30 27 26 26 25 25 22 21 24 25 23 26 38 37 35 31 31 30 29 27 24 22 21 20
39 37 37 38 35 32 32 32 33 31 29 31 35 36 39 38 39 34 33 25 28 22 27 26 24 22 18 13 15 16 14 21 29 31 28 27 28 27 25 23 21 20 19 19
42 41 41 40 37 29 27 28 33 36 35 34 35 38 37 34 35 35 33 27 27 26 23 24 22 20 19 9 8 11 6 10 19 24 26 27 26 22 20 19 20 19 19 19
43 40 38 37 36 33 28 30 32 38 38 36 36 36 37 32 32 31 31 32 26 29 31 29 23 19 16 15 8 6 9 8 13 17 18 18 18 17 17 19 18 18 18 17
48 45 39 35 34 34 35 34 34 34 37 41 36 36 36 31 31 34 29 31 26 26 29 25 15 12 10 13 12 11 10 10 10 12 13 14 14 17 19 17 15 15 15 15
48 44 42 39 39 41 41 41 41 41 40 42 34 35 36 30 25 28 28 28 27 29 26 10 7 7 2 1 6 4 7 8 7 8 11 14 16 15 14 13 13 13 13 14
45 44 43 44 44 43 41 37 35 31 35 39 33 34 34 29 24 23 25 24 26 26 12 8 9 7 6 4 3 7 7 8 8 9 10 10 9 9 10 10 10 9 10 10
46 44 41 41 41 35 37 38 37 33 32 34 31 33 32 28 21 20 21 22 21 20 7 9 9 4 1 4 6 7 7 6 7 7 7 7 8 8 7 7 7 7 8 7
41 39 38 36 34 36 39 42 42 37 32 32 32 31 29 25 20 17 19 21 16 14 3 8 3 2 5 8 8 8 7 6 6 6 6 6 6 6 6 6 6 6 5 4
Wind_Direction
296 298 296 298 294 281 267 262 251 291 293 327 337 335 14 1 350 345 340 334 331 327 325 319 314 310 304 289 271 268 275 280 283 288 292 295 298 303 322 336 345 348 344 305
295 303 303 298 302 295 279 267 270 294 304 343 2 7 2 344 333 332 332 326 326 322 318 315 314 310 309 306 293 276 270 274 279 281 283 284 287 300 307 315 325 348 329 351
288 299 303 303 157 319 310 295 301 292 327 358 356 348 338 336 336 336 334 328 320 318 315 313 307 305 303 301 301 292 282 277 276 277 278 279 282 288 294 304 315 336 351 327
284 302 241 279 312 312 312 329 324 312 302 341 327 333 330 332 333 328 328 326 319 308 308 306 305 297 294 294 293 293 289 282 280 279 279 277 277 276 283 294 302 309 322 341
258 241 275 294 287 320 323 318 316 226 325 324 323 320 316 324 325 323 321 317 317 313 309 309 309 294 290 288 287 285 288 284 281 283 279 277 275 272 279 286 294 300 311 317
240 248 242 357 294 307 309 302 186 320 321 318 318 317 304 317 315 314 317 315 310 309 307 303 303 303 286 286 280 283 277 282 285 281 280 276 273 274 274 280 287 293 298 303
251 251 265 283 291 290 289 296 297 313 315 314 317 312 311 307 307 306 303 303 302 303 303 301 295 291 294 287 281 278 276 276 279 280 277 276 274 271 275 277 280 284 283 288
242 245 273 290 302 305 298 286 293 297 300 302 303 300 297 297 299 300 303 303 297 294 294 293 292 285 282 281 285 273 272 276 275 277 277 275 272 270 267 270 272 273 275 273
276 274 277 253 298 297 294 297 296 295 296 294 291 295 298 300 303 305 307 306 305 296 288 287 285 287 281 270 269 268 268 269 274 273 275 274 271 269 268 264 265 265 265 268
272 277 286 282 290 299 296 290 288 285 288 291 294 297 300 300 299 299 300 299 297 295 293 287 283 284 288 269 256 266 270 269 267 271 271 272 272 268 265 264 261 262 264 265
279 284 282 290 298 296 296 295 290 291 298 296 295 297 300 299 299 301 298 294 291 288 288 289 281 280 281 278 268 258 258 265 265 262 267 267 267 268 264 262 262 260 260 263
288 299 295 288 296 297 296 300 300 302 301 299 301 302 301 303 304 300 296 293 294 293 287 283 279 276 277 277 277 272 252 256 262 261 257 260 260 262 264 263 262 262 262 261
289 287 280 293 297 294 299 302 301 300 299 305 306 303 302 298 297 295 293 292 293 296 291 283 281 279 282 274 270 281 256 247 256 256 253 253 258 260 260 261 260 261 263 264
279 283 293 289 294 306 303 300 300 301 304 300 305 302 305 305 298 292 290 291 290 288 286 282 280 280 283 272 268 265 274 242 244 248 248 249 252 256 257 256 259 260 261 263
286 286 291 305 302 297 300 307 305 301 300 299 299 301 313 316 303 296 299 296 290 285 282 279 280 280 277 268 271 266 261 269 240 242 245 249 249 249 252 255 253 253 258 261
291 294 298 300 290 291 296 294 304 309 319 328 318 322 320 321 326 304 301 303 298 291 285 281 276 274 272 270 272 264 262 267 246 235 235 240 241 243 245 251 255 254 253 254
289 288 293 306 311 294 285 299 315 326 331 326 324 320 320 332 340 328 321 306 302 297 287 281 276 272 265 269 268 264 271 271 245 227 229 231 233 236 241 245 248 248 249 251
352 348 347 342 335 334 331 335 323 320 322 324 324 321 329 332 336 338 328 319 314 296 287 279 278 273 269 266 269 265 275 261 240 217 221 222 229 231 235 238 240 244 247 250
338 330 329 330 327 326 325 324 320 320 318 323 320 324 330 329 330 338 334 331 321 312 300 290 282 276 263 271 260 269 272 260 235 218 216 215 220 225 230 232 236 243 248 251
313 310 305 307 310 314 316 317 317 316 316 321 318 315 320 324 323 336 331 321 330 327 323 314 304 286 264 272 269 270 272 252 232 220 215 212 217 221 225 232 234 240 249 252
310 306 301 301 304 302 297 304 303 309 313 312 310 312 315 320 325 326 331 319 317 321 321 321 307 300 306 271 270 264 244 244 229 215 208 211 214 222 227 230 236 239 244 247
310 304 302 299 297 296 290 290 298 302 302 305 301 301 305 311 319 326 324 327 319 318 318 316 311 291 273 284 244 251 254 220 206 198 196 202 213 221 225 232 236 239 241 242
306 304 302 299 295 293 291 290 288 288 291 290 294 290 295 301 310 323 322 325 325 322 323 313 298 277 267 250 242 219 212 222 215 207 208 208 211 219 227 231 232 234 234 234
302 300 295 297 299 298 296 294 292 288 282 279 280 278 283 291 300 316 317 317 326 326 320 309 1 23 17 259 176 190 216 210 192 188 192 204 214 220 223 222 222 222 227 235
304 300 298 296 297 301 302 300 295 291 283 276 269 266 270 277 289 307 316 313 319 324 313 14 351 348 10 19 104 140 141 145 160 179 195 204 210 212 212 216 221 230 239 245
301 300 298 295 297 297 303 307 304 297 295 286 269 264 265 268 274 298 304 312 311 315 327 347 331 313 186 157 156 144 142 154 163 171 182 189 194 198 206 214 221 231 232 223
309 308 303 298 296 299 302 302 300 295 287 282 272 266 262 260 264 288 294 312 298 297 297 304 294 138 136 137 134 140 151 163 174 179 184 186 189 192 199 203 201 201 212 247
Height
3080 3078 3077 3071 3067 3067 3063 3061 3060 3042 3040 3039 3040 3037 3036 3033 3031 3028 3026 3023 3019 3016 3013 3009 3006 3003 3000 2998 2996 2995 2995 2995 2993 2991 2989 2986 2983 2980 2975 2970 2963 2958 2954 2951
3068 3069 3067 3058 3054 3052 3050 3049 3044 3040 3036 3038 3036 3035 3034 3031 3028 3025 3022 3018 3015 3012 3008 3006 3002 2998 2995 2992 2989 2987 2987 2987 2986 2985 2983 2980 2978 2975 2972 2968 2963 2956 2951 2948
3059 3063 3060 3051 3042 3043 3042 3039 3040 3036 3036 3034 3032 3030 3028 3025 3023 3019 3016 3013 3009 3006 3003 3000 2996 2993 2990 2987 2985 2982 2980 2979 2978 2978 2976 2974 2972 2970 2967 2964 2960 2955 2950 2946
3057 3058 3056 3043 3041 3038 3036 3036 3034 3033 3032 3030 3027 3025 3023 3020 3016 3012 3009 3006 3002 2998 2995 2993 2990 2987 2984 2982 2979 2977 2975 2973 2972 2971 2969 2967 2966 2964 2962 2960 2957 2953 2949 2944
3059 3052 3041 3041 3038 3035 3031 3029 3026 3025 3026 3024 3019 3014 3013 3012 3009 3006 3002 2998 2995 2991 2987 2985 2982 2978 2977 2976 2973 2970 2969 2966 2964 2964 2962 2961 2960 2958 2957 2955 2953 2950 2947 2944
3053 3049 3038 3032 3033 3031 3028 3025 3023 3021 3018 3015 3009 3003 3002 3003 3000 2997 2994 2991 2986 2984 2981 2978 2975 2971 2968 2968 2966 2964 2961 2960 2959 2956 2956 2955 2954 2953 2952 2951 2949 2947 2945 2942
3043 3037 3024 3030 3029 3026 3027 3027 3018 3013 3008 3004 3000 2999 2994 2993 2991 2989 2987 2984 2981 2976 2970 2969 2965 2961 2961 2958 2959 2957 2954 2953 2953 2952 2949 2949 2948 2947 2947 2946 2945 2944 2943 2941
3033 3030 3023 3024 3023 3026 3024 3018 3012 3005 3001 2995 2992 2989 2986 2983 2980 2977 2974 2971 2969 2963 2961 2958 2957 2951 2952 2950 2950 2948 2946 2946 2945 2945 2944 2942 2941 2941 2940 2940 2940 2940 2939 2939
3027 3017 3021 3014 3014 3014 3011 3004 2997 2995 2992 2989 2982 2977 2975 2970 2968 2964 2960 2957 2954 2950 2946 2947 2946 2943 2941 2944 2937 2937 2938 2938 2938 2936 2937 2937 2935 2934 2934 2934 2934 2934 2934 2934
3014 3010 3008 3007 3006 3002 2997 2991 2988 2985 2981 2977 2971 2967 2962 2960 2956 2952 2948 2943 2941 2937 2934 2932 2934 2930 2929 2930 2929 2927 2928 2930 2929 2930 2929 2929 2929 2928 2927 2928 2928 2928 2927 2928
2997 3000 2998 2998 2995 2990 2986 2983 2977 2974 2970 2965 2961 2956 2952 2947 2945 2940 2935 2931 2928 2924 2920 2918 2919 2916 2916 2916 2915 2915 2916 2918 2919 2919 2921 2920 2921 2921 2921 2920 2921 2921 2921 2922
2983 2993 2988 2982 2981 2978 2973 2969 2967 2962 2957 2956 2952 2944 2939 2934 2931 2927 2922 2917 2913 2910 2905 2904 2903 2902 2903 2902 2901 2899 2900 2905 2908 2909 2910 2912 2912 2913 2913 2914 2914 2914 2915 2916
2977 2978 2974 2969 2967 2966 2960 2957 2955 2950 2947 2941 2939 2935 2930 2921 2917 2914 2910 2904 2900 2896 2893 2891 2890 2890 2891 2889 2888 2887 2886 2891 2896 2898 2900 2901 2903 2905 2905 2906 2906 2906 2907 2909
2971 2965 2962 2963 2955 2952 2948 2946 2942 2939 2936 2933 2927 2921 2917 2910 2903 2898 2895 2891 2887 2883 2881 2880 2879 2879 2880 2877 2876 2875 2876 2876 2881 2886 2888 2890 2893 2896 2897 2897 2899 2900 2900 2902
2960 2958 2953 2947 2945 2942 2939 2936 2933 2929 2925 2922 2918 2913 2907 2900 2890 2886 2882 2878 2873 2868 2867 2867 2867 2867 2865 2863 2862 2862 2863 2865 2867 2871 2876 2880 2882 2884 2887 2889 2890 2892 2894 2895
2949 2948 2945 2940 2936 2933 2931 2929 2925 2921 2916 2911 2908 2904 2898 2893 2882 2875 2871 2866 2859 2856 2855 2854 2853 2854 2852 2851 2851 2850 2851 2851 2853 2858 2862 2867 2870 2874 2877 2880 2883 2885 2886 2888
2940 2939 2936 2933 2930 2926 2923 2920 2916 2913 2908 2904 2901 2896 2892 2883 2875 2868 2862 2858 2852 2847 2844 2841 2840 2841 2841 2840 2840 2840 2838 2838 2838 2844 2850 2855 2860 2864 2869 2872 2874 2877 2878 2880
2936 2933 2930 2928 2924 2921 2916 2915 2910 2907 2902 2897 2892 2888 2882 2876 2867 2861 2855 2849 2843 2838 2833 2832 2830 2830 2829 2828 2827 2826 2826 2825 2827 2833 2838 2843 2850 2855 2859 2863 2866 2868 2871 2873
2930 2928 2927 2924 2921 2916 2913 2909 2906 2901 2896 2891 2886 2882 2877 2871 2864 2856 2850 2843 2837 2833 2829 2825 2823 2821 2819 2819 2818 2817 2816 2815 2818 2822 2828 2833 2839 2846 2850 2854 2857 2860 2863 2866
2925 2922 2918 2915 2913 2910 2906 2904 2899 2894 2889 2884 2880 2875 2871 2868 2861 2853 2848 2841 2837 2832 2826 2822 2818 2814 2812 2811 2811 2810 2810 2810 2813 2816 2820 2827 2833 2838 2843 2846 2850 2854 2856 2859
2914 2911 2907 2904 2901 2899 2897 2894 2891 2887 2883 2878 2874 2869 2864 2862 2856 2849 2843 2838 2834 2829 2825 2821 2817 2813 2809 2807 2807 2806 2807 2808 2811 2814 2819 2824 2830 2834 2838 2841 2844 2846 2849 2852
2902 2899 2895 2892 2890 2886 2886 2884 2881 2877 2873 2870 2867 2863 2858 2857 2853 2847 2841 2834 2830 2825 2821 2816 2813 2810 2808 2806 2805 2805 2805 2807 2810 2813 2817 2821 2825 2829 2833 2836 2838 2841 2843 2846
2892 2887 2883 2880 2877 2874 2871 2870 2868 2865 2862 2859 2857 2854 2851 2850 2847 2841 2836 2832 2826 2821 2816 2811 2807 2805 2803 2803 2803 2804 2804 2806 2809 2812 2815 2819 2823 2827 2829 2831 2834 2837 2839 2841
2879 2875 2872 2869 2865 2862 2859 2857 2854 2852 2848 2845 2845 2844 2842 2842 2842 2838 2832 2827 2822 2817 2812 2807 2804 2801 2800 2800 2800 2802 2803 2805 2807 2810 2814 2817 2821 2823 2826 2828 2830 2832 2835 2837
2867 2862 2859 2856 2853 2850 2846 2841 2837 2836 2833 2830 2831 2832 2832 2834 2834 2832 2828 2823 2819 2815 2810 2806 2803 2801 2800 2800 2801 2802 2803 2805 2808 2811 2813 2816 2819 2821 2824 2826 2828 2830 2833 2834
2853 2849 2846 2844 2840 2837 2834 2830 2825 2824 2821 2818 2818 2820 2821 2824 2826 2825 2822 2818 2815 2812 2809 2806 2804 2803 2802 2801 2802 2804 2805 2807 2809 2811 2813 2815 2818 2821 2823 2825 2827 2829 2831 2832
2840 2836 2833 2829 2828 2826 2823 2819 2814 2811 2811 2809 2807 2809 2812 2815 2818 2818 2817 2813 2811 2810 2808 2807 2805 2804 2803 2803 2804 2805 2806 2808 2810 2812 2813 2815 2818 2820 2822 2824 2825 2827 2829 2829